Weather History for Bentonville, AR

Change the Weather History Date:

Saturday, April 13, 2013

  Actual Average Record
Temperature  
Mean Temperature 55 °F -  
Max Temperature 69 °F 69 °F 87 °F (1972)
Min Temperature 41 °F 46 °F 16 °F (1957)
Degree Days  
Heating Degree Days 10    
Growing Degree Days 5 (Base 50)    
Moisture  
Dew Point 39 °F    
Average Humidity 59    
Maximum Humidity 81    
Minimum Humidity 38    
Precipitation  
Precipitation 0.01 in - - ()
Sea Level Pressure  
Sea Level Pressure 29.95 in    
Wind  
Wind Speed 4 mph (SSE)    
Max Wind Speed 16 mph    
Max Gust Speed 22 mph    
Visibility 10 miles    
Events      
Averages and records for this station are not official NWS values.
T = Trace of Precipitation, MM = Missing Value Source: NWS Daily Summary

Daily Weather History Graph

Daily Weather History Graph

Search for Another Location

Airport:

Trip Planner

Search our weather history database for the weather conditions in past years. The results will help you decide how hot, cold, wet, or windy it might be!

Date:

Astronomy

Apr. 13, 2013 Rise Set
Actual Time 6:45 AM CDT 7:49 PM CDT
Civil Twilight 6:19 AM CDT 8:15 PM CDT
Nautical Twilight 5:47 AM CDT 8:47 PM CDT
Astronomical Twilight 5:15 AM CDT 9:20 PM CDT
Moon 8:42 AM CDT (4/13) 11:09 PM CDT (4/13)
Length of Visible Light 13h 56m
Length of Day
13h 03m
Waxing Crescent, 10% of the Moon is Illuminated
Apr 13
Waxing Crescent
Apr 18
First Quarter
Apr 25
Full
May 2
Last Quarter
May 9
New

Hourly Weather History & Observations

Time (CDT) Temp. Windchill Dew Point Humidity Pressure Visibility Wind Dir Wind Speed Gust Speed Precip Events Conditions
12:15 AM 46.4 °F 44.3 °F 33.8 °F 62% 30.03 in 10.0 mi North 4.6 mph - N/A   Clear
12:35 AM 46.4 °F - 33.8 °F 62% 30.03 in 10.0 mi Calm Calm - N/A   Clear
12:55 AM 46.4 °F - 32.0 °F 57% 30.03 in 10.0 mi Calm Calm - N/A   Clear
1:15 AM 44.6 °F 43.1 °F 32.0 °F 61% 30.03 in 10.0 mi East 3.5 mph - N/A   Clear
1:35 AM 44.6 °F - 32.0 °F 61% 30.03 in 10.0 mi Calm Calm - N/A   Clear
1:55 AM 42.8 °F 41.1 °F 32.0 °F 66% 30.04 in 10.0 mi East 3.5 mph - N/A   Clear
2:15 AM 42.8 °F - 33.8 °F 70% 30.04 in 10.0 mi Calm Calm - N/A   Partly Cloudy
2:35 AM 42.8 °F - 33.8 °F 70% 30.04 in 10.0 mi Calm Calm - N/A   Clear
2:55 AM 42.8 °F - 33.8 °F 70% 30.03 in 10.0 mi Calm Calm - N/A   Scattered Clouds
3:15 AM 42.8 °F 41.1 °F 35.6 °F 76% 30.02 in 10.0 mi East 3.5 mph - N/A   Mostly Cloudy
3:35 AM 42.8 °F - 35.6 °F 76% 30.02 in 10.0 mi Calm Calm - N/A   Overcast
3:55 AM 42.8 °F - 33.8 °F 70% 30.02 in 10.0 mi Calm Calm - N/A   Mostly Cloudy
4:15 AM 41.0 °F - 35.6 °F 81% 30.02 in 10.0 mi Calm Calm - N/A   Partly Cloudy
4:35 AM 42.8 °F - 35.6 °F 76% 30.02 in 10.0 mi Calm Calm - N/A   Mostly Cloudy
4:55 AM 42.8 °F - 33.8 °F 70% 30.02 in 10.0 mi Calm Calm - N/A   Overcast
5:15 AM 42.8 °F - 35.6 °F 76% 30.02 in 10.0 mi Calm Calm - N/A   Overcast
5:35 AM 44.6 °F - 37.4 °F 76% 30.02 in 10.0 mi Calm Calm - N/A   Overcast
5:55 AM 44.6 °F 43.1 °F 37.4 °F 76% 30.03 in 10.0 mi SW 3.5 mph - N/A   Overcast
6:15 AM 42.8 °F 41.1 °F 35.6 °F 76% 30.04 in 10.0 mi SSW 3.5 mph - N/A   Overcast
6:35 AM 42.8 °F 40.1 °F 35.6 °F 76% 30.03 in 10.0 mi SE 4.6 mph - N/A   Scattered Clouds
6:55 AM 42.8 °F 40.1 °F 35.6 °F 76% 30.03 in 10.0 mi NE 4.6 mph - N/A   Partly Cloudy
7:15 AM 44.6 °F - 35.6 °F 71% 30.03 in 10.0 mi Calm Calm - N/A   Scattered Clouds
7:35 AM 44.6 °F 43.1 °F 37.4 °F 76% 30.04 in 10.0 mi NE 3.5 mph - N/A   Partly Cloudy
7:55 AM 46.4 °F 45.2 °F 35.6 °F 66% 30.04 in 10.0 mi East 3.5 mph - N/A   Partly Cloudy
8:15 AM 46.4 °F 44.3 °F 37.4 °F 71% 30.05 in 10.0 mi SSE 4.6 mph - N/A   Mostly Cloudy
8:35 AM 48.2 °F - 37.4 °F 66% 30.05 in 10.0 mi SSE 6.9 mph - N/A   Scattered Clouds
8:55 AM 50.0 °F - 37.4 °F 62% 30.05 in 10.0 mi SSE 4.6 mph - N/A   Partly Cloudy
9:15 AM 51.8 °F - 37.4 °F 58% 30.04 in 10.0 mi SE 3.5 mph - N/A   Partly Cloudy
9:35 AM 51.8 °F - 37.4 °F 58% 30.04 in 10.0 mi SSE 5.8 mph - N/A   Clear
9:55 AM 51.8 °F - 37.4 °F 58% 30.04 in 10.0 mi SSE 5.8 mph - N/A   Partly Cloudy
10:15 AM 53.6 °F - 35.6 °F 51% 30.05 in 10.0 mi South 4.6 mph - N/A   Scattered Clouds
10:35 AM 53.6 °F - 37.4 °F 54% 30.04 in 10.0 mi Calm Calm - N/A   Partly Cloudy
10:55 AM 55.4 °F - 37.4 °F 51% 30.04 in 10.0 mi SE 5.8 mph - N/A   Partly Cloudy
11:15 AM 55.4 °F - 37.4 °F 51% 30.04 in 10.0 mi South 4.6 mph - N/A   Partly Cloudy
11:35 AM 55.4 °F - 37.4 °F 51% 30.03 in 10.0 mi South 6.9 mph - N/A   Mostly Cloudy
11:55 AM 53.6 °F - 41.0 °F 62% 30.02 in 10.0 mi SSE 6.9 mph - N/A   Overcast
12:15 PM 53.6 °F - 39.2 °F 58% 30.02 in 10.0 mi SSE 6.9 mph - N/A   Overcast
12:35 PM 53.6 °F - 42.8 °F 67% 30.01 in 10.0 mi SE 5.8 mph - 0.01 in   Mostly Cloudy
12:55 PM 55.4 °F - 44.6 °F 67% 30.00 in 10.0 mi SE 5.8 mph - 0.01 in   Mostly Cloudy
1:15 PM 57.2 °F - 44.6 °F 63% 29.98 in 10.0 mi SSE 8.1 mph - N/A   Mostly Cloudy
1:35 PM 59.0 °F - 46.4 °F 63% 29.97 in 10.0 mi SE 8.1 mph - N/A   Partly Cloudy
1:55 PM 60.8 °F - 44.6 °F 55% 29.96 in 10.0 mi SSE 11.5 mph - N/A   Clear
2:15 PM 62.6 °F - 44.6 °F 52% 29.94 in 10.0 mi SSE 11.5 mph - N/A   Clear
2:35 PM 64.4 °F - 44.6 °F 49% 29.93 in 10.0 mi SSE 13.8 mph - N/A   Clear
2:55 PM 64.4 °F - 44.6 °F 49% 29.92 in 10.0 mi SSE 10.4 mph 17.3 mph N/A   Scattered Clouds
3:15 PM 66.2 °F - 44.6 °F 46% 29.91 in 10.0 mi SSW 10.4 mph - N/A   Scattered Clouds
3:35 PM 66.2 °F - 44.6 °F 46% 29.90 in 10.0 mi South 16.1 mph 21.9 mph N/A   Mostly Cloudy
3:55 PM 66.2 °F - 44.6 °F 46% 29.89 in 10.0 mi SSE 15.0 mph 19.6 mph N/A   Scattered Clouds
4:15 PM 64.4 °F - 42.8 °F 45% 29.88 in 10.0 mi South 10.4 mph - N/A   Mostly Cloudy
4:35 PM 66.2 °F - 42.8 °F 43% 29.86 in 10.0 mi SSE 11.5 mph 17.3 mph N/A   Mostly Cloudy
4:55 PM 66.2 °F - 42.8 °F 43% 29.85 in 10.0 mi SSE 11.5 mph - N/A   Partly Cloudy
5:15 PM 66.2 °F - 44.6 °F 46% 29.85 in 10.0 mi SSE 11.5 mph - N/A   Clear
5:35 PM 68.0 °F - 44.6 °F 43% 29.83 in 10.0 mi SSE 10.4 mph - N/A   Clear
5:55 PM 69.8 °F - 42.8 °F 38% 29.83 in 10.0 mi South 10.4 mph 17.3 mph N/A   Clear
6:15 PM 69.8 °F - 42.8 °F 38% 29.82 in 10.0 mi South 12.7 mph - N/A   Clear
6:35 PM 68.0 °F - 42.8 °F 40% 29.82 in 10.0 mi South 11.5 mph 19.6 mph N/A   Clear
7:15 PM 66.2 °F - 42.8 °F 43% 29.81 in 10.0 mi South 10.4 mph - N/A   Clear
7:35 PM 66.2 °F - 41.0 °F 40% 29.80 in 10.0 mi South 10.4 mph 17.3 mph N/A   Clear
7:55 PM 62.6 °F - 41.0 °F 45% 29.80 in 10.0 mi SSE 5.8 mph - N/A   Clear
8:15 PM 60.8 °F - 41.0 °F 48% 29.80 in 10.0 mi SSE 4.6 mph - N/A   Clear
8:35 PM 57.2 °F - 42.8 °F 59% 29.80 in 10.0 mi SSE 8.1 mph - N/A   Clear
8:55 PM 57.2 °F - 42.8 °F 59% 29.80 in 10.0 mi SSE 8.1 mph - N/A   Clear
9:15 PM 57.2 °F - 41.0 °F 55% 29.80 in 10.0 mi SE 6.9 mph - N/A   Clear
9:35 PM 57.2 °F - 41.0 °F 55% 29.81 in 10.0 mi SE 6.9 mph - N/A   Clear
9:55 PM 55.4 °F - 41.0 °F 58% 29.81 in 10.0 mi SE 8.1 mph - N/A   Clear
10:15 PM 53.6 °F - 41.0 °F 62% 29.81 in 10.0 mi SE 6.9 mph - N/A   Clear
10:35 PM 55.4 °F - 42.8 °F 63% 29.81 in 10.0 mi SSE 9.2 mph - N/A   Clear
10:55 PM 55.4 °F - 42.8 °F 63% 29.81 in 10.0 mi SSE 8.1 mph - N/A   Clear
11:15 PM 55.4 °F - 42.8 °F 63% 29.81 in 10.0 mi SSE 6.9 mph - N/A   Clear
11:35 PM 57.2 °F - 42.8 °F 59% 29.80 in 10.0 mi SSE 8.1 mph - N/A   Clear
11:55 PM 57.2 °F - 42.8 °F 59% 29.80 in 10.0 mi SSE 10.4 mph - N/A   Clear